User: anonymous   Login
Location: Unspecified
(0.0000°N, 0.0000°E)
Time: 01:04:31
(UTC+00:00)
Language:

STARLINK-5327 - Orbit

View from above orbital plane
View from above orbital plane
View from above satellite
View from above satellite

Ground track
Ground track

The orbit is defined by the following mean orbital elements,

1 55291U          26145.58285757 +.00000000 +00000-0 -64766-4 0 00004
2 55291  69.9994 190.7142 0003589 269.1535  90.9213 14.98322510    09
Epoch (UTC): 25 May 2026 13:59:18
Eccentricity: 0.0003589
inclination: 69.9994°
perigee height: 570 km
apogee height: 575 km
right ascension of ascending node: 190.7142°
argument of perigee: 269.1535°
revolutions per day: 14.98322510
mean anomaly at epoch: 90.9213°

The dashed part of the orbit path shows where the satellite is in the earth's shadow,  

DLR